Szolnok, Hungary

6:21 AM CEST on May 25, 2017 (GMT +0200)
Szolnok

Weather History for LHSN - November, 2013

Change the Weather History Date:

Friday, November 15, 2013

  Actual Average (LHBP) Record (LHBP)
Temperature  
Mean Temperature 46 °F -  
Max Temperature 50 °F 47 °F 69 °F (2002)
Min Temperature 42 °F 33 °F 21 °F (2011)
Degree Days  
Heating Degree Days 19    
Moisture  
Dew Point 41 °F    
Average Humidity 88    
Maximum Humidity 100    
Minimum Humidity 81    
Precipitation  
Precipitation 0.00 in - - ()
Sea Level Pressure  
Sea Level Pressure 30.26 in    
Wind  
Wind Speed 5 mph ()    
Max Wind Speed 9 mph    
Max Gust Speed -    
Visibility 5.5 miles    
Events Fog , Rain    
Averages and records for this station are not official NWS values.
T = Trace of Precipitation, MM = Missing Value Source: Averaged Metar Reports

Daily Weather History Graph

Daily Weather History Graph

Search for Another Location

Airport or City:

Trip Planner

Search our weather history database for the weather conditions in past years. The results will help you decide how hot, cold, wet, or windy it might be!

Date:

Astronomy

Nov. 15, 2013 Rise Set
Actual Time 6:42 AM CET 4:04 PM CET
Civil Twilight 6:09 AM CET 4:37 PM CET
Nautical Twilight 5:32 AM CET 5:14 PM CET
Astronomical Twilight 4:56 AM CET 5:50 PM CET
Moon 2:56 PM CET (11/15) 4:12 AM CET (11/15)
Length of Visible Light 10h 27m
Length of Day
9h 21m
Waxing Gibbous, 95% of the Moon is Illuminated
Nov 15
Waxing Gibbous
Nov 17
Full
Nov 25
Last Quarter
Dec 3
New
Dec 9
First Quarter

Hourly Weather History & Observations

Time (CET) Temp. Windchill Dew Point Humidity Pressure Visibility Wind Dir Wind Speed Gust Speed Precip Events Conditions
12:15 AM 42.8 °F 40.2 °F 39.2 °F 87% 30.15 in - NE 4.5 mph - N/A   Clear
12:45 AM 42.8 °F 38.7 °F 39.2 °F 87% 30.15 in - NE 6.7 mph - N/A   Clear
1:15 AM 44.6 °F 40.8 °F 39.2 °F 81% 30.15 in - ENE 6.7 mph - N/A   Clear
1:45 AM 42.8 °F 38.7 °F 39.2 °F 87% 30.15 in - ENE 6.7 mph - N/A   Clear
2:15 AM 42.8 °F 38.7 °F 39.2 °F 87% 30.15 in - NE 6.7 mph - N/A   Clear
2:45 AM 42.8 °F 38.7 °F 39.2 °F 87% 30.15 in - ENE 6.7 mph - N/A   Clear
3:15 AM 42.8 °F 38.7 °F 39.2 °F 87% 30.15 in - ENE 6.7 mph - N/A   Clear
3:45 AM 42.8 °F 38.7 °F 39.2 °F 87% 30.18 in - NE 6.7 mph - N/A   Clear
4:15 AM 42.8 °F 38.7 °F 37.4 °F 81% 30.18 in - ENE 6.7 mph - N/A   Clear
4:45 AM 42.8 °F 40.2 °F 37.4 °F 81% 30.18 in - ENE 4.5 mph - N/A   Clear
5:15 AM 42.8 °F 38.7 °F 37.4 °F 81% 30.18 in - NE 6.7 mph - N/A   Clear
5:45 AM 42.8 °F 40.2 °F 39.2 °F 87% 30.18 in 6.2 mi NE 4.5 mph - N/A   Mostly Cloudy
6:15 AM 42.8 °F 38.7 °F 39.2 °F 87% 30.21 in 6.2 mi ENE 6.7 mph - N/A   Mostly Cloudy
6:45 AM 42.8 °F 38.7 °F 39.2 °F 87% 30.21 in 6.2 mi ENE 6.7 mph - N/A   Mostly Cloudy
7:15 AM 42.8 °F 38.7 °F 39.2 °F 87% 30.21 in 6.2 mi ENE 6.7 mph - N/A   Mostly Cloudy
7:45 AM 44.6 °F 40.8 °F 39.2 °F 81% 30.24 in 6.2 mi NE 6.7 mph - N/A   Mostly Cloudy
8:15 AM 44.6 °F 40.8 °F 39.2 °F 81% 30.24 in 6.2 mi ENE 6.7 mph - N/A   Overcast
8:45 AM - - - N/A% - 6.2 mi NNE 6.7 mph - N/A   Mostly Cloudy
9:15 AM 44.6 °F 39.8 °F 41.0 °F 87% 30.27 in 6.2 mi NE 8.9 mph - N/A   Overcast
9:45 AM 44.6 °F 40.8 °F 41.0 °F 87% 30.27 in 6.2 mi NE 6.7 mph - N/A   Overcast
10:15 AM 44.6 °F 40.8 °F 41.0 °F 87% 30.27 in 6.2 mi NE 6.7 mph - N/A Rain Light Rain Showers
10:45 AM 46.4 °F 43.0 °F 42.8 °F 87% 30.27 in 6.2 mi NE 6.7 mph - N/A   Mostly Cloudy
11:15 AM 46.4 °F 44.4 °F 42.8 °F 87% 30.27 in 6.2 mi NE 4.5 mph - N/A   Mostly Cloudy
11:45 AM - - - N/A% - 6.2 mi NNE 6.7 mph - N/A   Mostly Cloudy
12:15 PM 46.4 °F 43.0 °F 44.6 °F 93% 30.27 in - NNE 6.7 mph - N/A   Clear
12:45 PM 48.2 °F - 44.6 °F 87% 30.27 in - NNE 8.9 mph - N/A   Clear
1:15 PM 48.2 °F - 44.6 °F 87% 30.27 in - NE 6.7 mph - N/A   Clear
1:45 PM 48.2 °F - 44.6 °F 87% 30.27 in - NE 6.7 mph - N/A   Clear
2:15 PM 50.0 °F - 44.6 °F 82% 30.27 in - NNE 6.7 mph - N/A   Clear
2:45 PM - - - N/A% - 6.2 mi NNE 6.7 mph - N/A   Clear
3:15 PM 48.2 °F - 44.6 °F 87% 30.30 in - NE 4.5 mph - N/A   Clear
3:45 PM 48.2 °F - 44.6 °F 87% 30.30 in - NE 4.5 mph - N/A   Clear
4:15 PM 46.4 °F 44.4 °F 42.8 °F 87% 30.30 in - NE 4.5 mph - N/A   Clear
4:45 PM 44.6 °F 42.3 °F 42.8 °F 93% 30.30 in - NE 4.5 mph - N/A   Clear
5:15 PM 44.6 °F 42.3 °F 42.8 °F 93% 30.33 in - NNE 4.5 mph - N/A   Clear
5:45 PM - - - N/A% - 3.1 mi NNE 6.7 mph - N/A   Clear
6:15 PM 44.6 °F - 42.8 °F 93% 30.33 in - NNW 2.2 mph - N/A   Clear
6:45 PM 42.8 °F - 42.8 °F 100% 30.33 in - North 2.2 mph - N/A   Clear
7:15 PM 42.8 °F - 41.0 °F 93% 30.33 in - North 2.2 mph - N/A   Clear
7:45 PM 42.8 °F - 42.8 °F 100% 30.36 in - North 2.2 mph - N/A   Clear
8:15 PM 42.8 °F - 41.0 °F 93% 30.36 in - North 2.2 mph - N/A   Clear
8:45 PM - - - N/A% - 3.1 mi Variable 2.2 mph - N/A   Mostly Cloudy
9:15 PM 46.4 °F 44.4 °F 42.8 °F 87% 30.36 in - North 4.5 mph - N/A   Clear
9:45 PM 44.6 °F 42.3 °F 42.8 °F 93% 30.36 in - North 4.5 mph - N/A   Clear
10:15 PM 44.6 °F - 42.8 °F 93% 30.36 in - North 2.2 mph - N/A   Clear
10:45 PM 44.6 °F 42.3 °F 42.8 °F 93% 30.36 in - North 4.5 mph - N/A   Clear
11:15 PM 44.6 °F - 42.8 °F 93% 30.36 in - East 2.2 mph - N/A   Clear
11:45 PM - - - N/A% - 1.0 mi North - - N/A Fog Fog